Theta_e
310 310 309 309 308 308 308 308 307 307 307 307 308 308 308 308 308 309 310 310 310 310 310 311 311 311 311 311 311 311 311 312 312 313 316 317 314 314 313 313 314 314 314 315 315 315 315 317 316 315 316 317 318 319 319 317 315 320 326 323 320 321 319 319 320 320 320 320 318 317 318 318 318 317 317 317 316 317 317 316 316 315 314 314 314 314 314 314
308 308 307 307 307 307 307 307 307 307 308 308 308 308 308 308 309 309 310 310 310 310 310 310 311 311 310 311 311 311 312 312 312 316 317 315 314 313 313 313 314 314 314 315 315 316 316 317 316 315 316 317 317 318 321 320 318 322 326 323 320 321 320 319 320 319 320 320 318 318 317 317 318 318 317 317 317 317 317 315 315 315 314 314 314 313 313 314
307 307 307 307 308 308 308 308 308 308 308 308 308 309 308 309 309 309 309 309 310 310 310 311 311 310 311 311 311 311 312 312 315 319 317 313 314 313 313 314 315 315 314 315 316 315 316 316 315 315 316 317 317 318 320 320 320 321 323 323 321 319 318 319 319 318 318 319 319 318 317 316 317 317 317 317 317 317 316 315 316 315 314 314 314 313 313 313
308 308 308 308 308 308 308 308 308 308 308 309 309 309 309 309 309 309 310 310 310 310 310 310 310 310 311 311 311 311 311 313 318 319 315 313 314 313 314 314 314 315 314 315 316 315 314 316 315 315 316 317 317 318 319 319 320 320 320 321 319 317 318 318 318 318 317 318 318 318 317 316 317 317 316 316 317 317 315 314 315 315 314 314 314 312 312 312
309 309 309 309 309 308 308 309 308 309 309 309 309 309 309 309 309 310 310 310 310 310 310 310 310 310 310 311 311 311 313 317 318 315 313 314 314 313 314 314 314 314 314 314 316 315 315 316 316 315 316 317 318 318 319 319 319 319 319 319 318 317 318 317 318 317 316 316 317 317 316 317 317 317 317 317 317 317 315 314 314 314 314 313 313 312 312 312
311 311 311 310 310 310 310 309 309 309 309 309 309 309 310 309 310 310 309 310 310 310 310 310 310 310 310 311 310 310 314 318 316 313 314 313 313 314 314 314 314 314 314 315 316 317 316 316 316 316 317 317 319 319 319 319 318 320 320 318 318 318 318 318 317 317 316 316 317 317 316 317 317 316 317 317 316 316 314 313 313 312 312 312 312 312 312 312
311 311 311 311 311 311 311 310 310 310 309 310 310 309 310 309 309 310 310 310 310 310 310 310 310 310 311 310 311 314 316 316 315 314 314 313 313 313 314 314 314 313 314 315 317 317 317 316 316 317 318 318 319 318 318 318 318 320 320 319 318 317 318 318 317 316 316 316 316 316 316 316 316 316 316 316 315 315 314 313 312 312 311 312 312 312 312 312
310 310 310 310 311 311 311 311 311 311 310 310 310 310 309 310 310 309 310 310 310 310 310 310 310 310 311 310 313 317 317 318 316 314 313 313 313 313 313 313 313 314 314 316 317 317 317 316 316 317 317 318 318 318 317 318 319 319 319 319 318 317 317 317 317 316 316 316 316 316 316 316 316 316 316 315 314 314 313 312 312 311 311 312 313 313 313 313
309 309 309 309 309 309 310 310 311 311 311 311 310 310 310 310 310 309 310 310 310 310 310 310 310 310 310 310 315 316 318 320 317 315 314 313 313 313 314 313 314 314 315 316 317 318 316 316 317 317 317 318 318 318 317 318 319 318 318 318 318 317 317 317 317 316 316 316 316 316 315 316 316 316 316 314 314 313 313 311 311 311 311 312 313 313 312 312
308 308 308 308 308 308 309 309 309 310 311 311 311 310 310 310 310 310 309 310 310 310 310 310 310 310 310 312 316 316 319 320 316 315 315 315 315 315 315 315 315 315 316 317 318 317 317 317 317 316 317 318 318 318 318 318 318 317 317 317 317 318 318 318 317 317 317 316 316 315 316 316 315 315 315 314 313 313 311 311 311 311 311 312 312 312 312 312
308 308 308 308 308 308 308 308 308 309 310 310 311 311 311 310 310 310 310 310 310 309 310 310 309 310 310 313 317 318 320 320 316 316 316 315 316 317 317 317 317 317 317 318 317 317 317 316 316 316 317 318 318 318 317 317 317 317 317 317 317 318 318 318 317 318 317 316 316 315 316 316 314 315 315 313 313 312 311 310 310 310 310 311 311 311 311 311
307 308 308 308 308 308 308 308 308 308 308 309 310 311 311 311 310 310 310 310 310 309 310 309 309 310 311 313 315 316 318 319 317 316 315 315 316 317 319 319 319 319 319 318 318 318 317 317 316 316 317 317 318 318 317 316 316 317 316 317 318 318 318 318 318 317 317 316 316 315 316 316 314 314 314 313 312 311 311 311 310 310 310 311 311 311 311 310
307 307 307 307 308 308 308 308 308 307 307 308 309 310 310 310 310 310 310 309 309 309 309 309 310 311 312 314 315 315 316 316 316 316 316 316 316 317 319 319 319 320 319 319 318 318 318 317 317 317 317 317 318 318 317 316 316 317 317 317 318 320 320 319 318 317 316 315 315 315 318 319 316 314 313 312 311 311 311 311 310 310 310 310 310 310 310 310
307 307 307 307 307 307 308 308 308 307 307 307 308 308 309 309 309 309 309 309 308 309 309 310 312 314 314 315 317 316 316 316 316 316 317 317 317 318 318 319 319 319 319 318 317 317 317 316 316 317 317 317 317 317 317 317 316 317 318 319 319 320 320 319 317 316 315 315 314 315 318 320 317 313 311 312 311 311 312 312 311 311 310 309 309 309 309 309
306 306 306 307 307 307 308 307 307 307 307 307 307 307 307 308 308 308 308 308 309 310 311 312 313 315 316 317 317 316 316 316 316 316 317 318 318 318 318 318 318 318 318 317 317 317 316 316 316 317 317 316 317 317 318 319 318 317 319 321 321 321 320 318 317 316 316 315 314 315 318 319 316 312 311 311 311 312 312 313 312 311 310 309 309 308 309 309
307 306 306 306 307 307 307 307 307 307 307 306 307 307 306 307 306 307 307 308 310 312 313 315 315 315 317 318 318 317 317 316 317 317 317 318 318 318 318 318 317 317 317 316 316 316 316 316 316 317 317 317 317 318 320 320 321 320 320 322 323 322 321 319 317 317 316 315 314 316 318 319 316 313 312 311 311 312 313 313 313 311 310 309 309 308 308 308
307 307 306 306 306 307 307 307 307 307 307 307 306 306 306 306 306 307 309 311 313 314 314 316 317 316 316 317 317 317 318 317 317 318 318 318 317 317 317 317 317 316 316 316 316 316 316 316 317 318 317 317 318 319 321 322 323 322 321 322 322 322 321 319 318 317 317 315 315 315 316 317 317 314 312 311 311 312 312 313 313 311 310 309 308 308 308 308
307 307 307 306 306 306 307 307 307 307 307 306 306 306 306 306 307 309 312 313 314 314 314 316 317 317 317 317 317 317 318 317 317 318 318 317 317 317 316 316 316 316 316 316 316 316 317 316 316 318 319 318 318 320 322 324 323 323 323 322 322 323 322 321 319 318 317 316 316 317 316 317 317 314 312 312 312 312 312 313 313 311 310 309 308 308 308 308
307 307 307 306 306 306 307 307 307 307 307 306 306 306 307 308 310 312 313 314 315 316 316 316 316 317 318 318 317 318 318 318 317 317 318 317 317 316 316 316 316 316 316 317 317 316 316 318 319 320 321 319 318 319 321 322 322 322 322 322 322 322 321 321 320 317 317 317 317 318 318 319 319 315 312 312 312 312 313 313 313 311 310 309 309 308 308 308
307 306 306 306 306 306 307 307 307 307 307 306 307 308 310 313 315 316 315 314 314 313 316 318 317 316 318 319 318 318 318 317 317 317 317 317 316 316 316 316 316 316 317 319 319 317 317 320 322 321 320 319 319 319 319 320 320 320 321 322 322 321 321 321 319 316 316 318 319 320 320 320 320 318 314 312 312 312 313 313 312 311 310 309 309 308 308 307
307 306 306 306 306 306 307 307 307 307 306 307 308 310 316 319 318 318 318 317 315 313 314 317 318 318 318 319 318 318 318 317 317 318 317 317 316 316 316 316 317 317 317 319 319 317 318 321 321 321 319 319 320 320 320 320 320 320 321 321 322 322 322 321 319 316 316 319 320 320 321 320 320 321 316 311 312 311 312 313 311 311 310 309 309 308 308 307
307 307 306 306 306 307 307 307 307 307 307 308 309 311 318 321 319 318 318 318 319 317 316 316 317 319 319 319 318 318 318 317 317 317 317 316 316 316 317 317 317 318 318 319 320 319 321 320 319 319 319 320 320 320 320 320 320 321 321 321 322 322 322 321 318 316 316 318 320 320 320 320 319 321 317 312 311 312 312 313 312 311 310 309 309 308 308 307
310 308 307 307 306 307 308 308 308 308 308 309 309 309 314 319 319 318 317 318 319 318 318 317 317 318 319 318 318 317 318 318 318 318 317 316 316 316 317 317 317 318 319 319 320 322 322 320 319 319 319 320 320 319 319 320 320 322 321 322 322 322 323 323 318 316 316 316 319 319 319 319 318 320 319 313 312 313 312 312 312 311 310 309 309 308 307 307
315 311 308 307 307 307 308 309 309 309 309 308 308 308 312 316 318 317 317 318 319 318 318 318 318 319 319 318 318 318 317 318 319 319 317 316 317 317 317 317 317 318 319 318 319 321 321 320 319 319 319 320 320 320 321 320 320 322 323 322 323 322 323 323 321 318 317 317 318 318 320 321 319 320 319 315 312 311 311 311 311 310 309 309 308 308 307 306
318 315 309 307 308 308 309 311 311 310 308 309 308 308 311 315 317 317 317 318 319 319 319 320 320 320 319 318 318 318 317 317 318 319 318 317 317 317 317 318 318 318 319 319 319 319 320 319 320 321 321 321 322 321 322 322 321 322 324 323 321 322 322 324 325 322 323 323 319 318 324 327 323 322 320 315 312 311 309 308 309 309 309 308 308 307 306 306
319 317 311 307 309 309 312 314 313 309 309 309 308 309 312 316 318 317 317 318 319 320 321 322 321 320 319 319 318 318 317 317 318 319 319 318 317 317 318 318 317 318 319 319 319 320 319 318 320 323 323 323 323 322 323 323 321 322 326 326 322 321 323 324 324 324 326 326 321 319 326 327 323 322 321 315 312 312 310 308 308 308 308 307 307 306 306 306
319 318 313 308 309 311 313 314 312 309 310 311 308 310 314 317 317 316 317 319 319 320 322 320 320 319 318 318 318 318 319 318 318 319 318 317 317 317 317 318 318 318 317 319 322 321 319 319 321 323 323 325 323 321 323 322 322 324 326 327 324 321 323 324 323 325 326 324 322 320 323 324 322 323 321 315 312 313 310 308 308 307 307 307 306 306 306 305
319 319 316 311 308 310 312 313 313 311 311 311 311 312 315 317 316 316 318 319 320 322 321 318 317 318 318 318 318 318 318 318 319 318 317 317 317 317 317 317 318 318 316 319 323 322 320 321 324 324 323 324 322 322 325 323 322 324 324 323 324 323 323 323 324 325 325 324 324 322 321 324 324 322 319 315 315 316 312 310 308 308 307 306 306 306 305 305
318 319 319 314 310 310 312 314 315 314 311 312 313 314 315 316 316 318 320 320 321 322 319 318 317 317 318 317 317 317 316 316 317 316 316 316 316 316 316 316 317 318 318 318 321 323 321 318 319 322 322 322 321 323 326 326 322 321 322 322 323 322 322 322 323 324 323 323 324 323 322 324 326 323 319 317 318 318 315 312 309 308 307 306 306 306 305 304
319 320 320 316 311 311 313 315 315 315 312 312 315 315 316 316 316 320 322 322 322 322 317 316 318 318 318 317 317 317 316 315 314 314 315 315 315 315 315 316 316 318 320 319 320 320 317 314 315 319 320 318 318 318 318 322 321 318 321 323 321 321 320 320 321 321 322 323 323 323 322 322 325 326 321 319 319 318 317 314 310 307 307 306 306 305 304 304
320 320 320 318 313 312 314 315 315 315 314 314 316 316 316 318 319 320 321 320 318 319 316 316 318 318 318 319 319 317 315 314 313 314 314 314 314 314 315 317 317 319 321 321 321 319 316 317 317 317 316 315 318 318 314 316 318 319 322 323 322 321 320 320 320 320 322 324 323 322 322 322 324 325 320 319 319 317 318 315 310 308 307 306 306 305 304 304
320 320 321 319 315 313 313 314 314 314 315 315 316 316 316 320 322 322 319 314 314 319 319 318 318 318 318 320 321 318 317 316 314 314 315 314 315 314 316 318 318 320 322 321 321 322 319 319 319 318 316 315 320 321 316 315 317 320 322 323 324 324 322 323 323 321 322 323 319 319 321 323 322 322 319 319 318 317 317 314 310 308 307 306 306 305 304 303
321 320 320 319 316 314 313 313 312 313 316 316 315 317 320 321 322 323 319 315 317 321 321 319 318 318 319 321 322 319 318 317 315 315 316 315 316 315 316 318 318 321 325 322 321 324 323 321 320 319 317 316 319 321 319 319 318 320 321 323 326 326 325 327 325 324 325 323 317 315 320 324 324 322 320 319 317 314 313 312 310 308 307 306 306 305 304 303
322 321 321 319 317 316 314 313 313 313 315 316 316 319 321 319 318 320 319 317 319 321 320 319 319 319 320 321 321 319 319 319 315 316 318 317 317 317 317 317 318 320 323 323 323 323 325 325 322 320 318 317 318 319 321 320 317 318 320 321 324 326 328 329 327 327 327 322 317 316 321 326 325 322 318 314 311 310 311 312 310 309 307 307 306 304 304 303
322 321 320 319 317 317 315 314 314 314 316 317 317 320 321 318 316 317 317 317 318 320 320 319 320 321 321 322 320 318 320 320 317 317 319 318 318 319 318 317 317 319 321 323 324 323 324 327 323 318 317 317 317 318 319 320 318 318 319 321 323 324 325 326 324 322 321 321 319 319 323 324 320 318 313 309 309 309 310 311 310 308 307 306 305 304 303 303
321 320 320 318 317 317 316 315 315 315 316 317 318 320 319 317 316 316 317 317 318 320 321 321 322 322 322 322 320 319 319 320 318 319 320 319 319 320 320 319 318 319 321 322 325 325 325 326 322 317 316 315 315 318 318 320 321 320 320 321 322 322 322 324 323 319 318 322 322 320 321 320 317 317 312 310 312 310 309 309 308 307 307 306 305 304 303 303
320 319 318 317 317 317 316 316 316 316 317 317 318 319 319 317 316 317 318 317 319 320 321 322 323 323 324 323 321 320 320 320 319 319 320 319 320 320 320 321 318 318 320 320 324 327 326 325 320 317 318 314 312 316 318 317 318 321 322 321 320 322 321 321 323 322 322 324 323 321 322 320 320 320 314 311 313 312 310 310 308 307 307 305 304 304 303 303
321 319 317 317 318 318 316 316 317 316 317 317 317 318 319 318 317 318 319 318 319 321 320 321 322 322 323 324 322 320 320 321 319 318 321 320 320 321 320 321 320 318 319 320 323 326 325 325 320 316 318 315 312 316 319 316 314 317 319 318 320 324 323 321 322 324 325 324 324 323 323 321 321 321 317 314 315 313 310 310 309 307 306 305 304 304 303 303
320 319 318 318 318 318 317 317 317 317 317 318 317 317 318 318 317 317 318 319 320 321 320 320 321 321 322 323 323 321 319 321 319 318 322 321 321 321 319 320 322 319 318 319 322 324 323 326 322 315 314 315 313 316 320 319 315 314 314 317 320 322 322 323 321 322 325 324 324 325 325 324 321 320 320 318 315 312 309 309 309 307 306 306 305 304 303 303
320 318 318 319 319 318 318 317 317 317 317 318 316 315 317 318 318 318 318 320 321 320 321 321 320 321 322 322 323 321 319 321 320 319 321 321 321 321 320 320 322 321 319 319 320 322 322 324 324 316 313 315 316 317 318 319 317 315 316 319 320 318 319 322 321 321 323 323 324 324 324 325 321 317 319 318 314 312 310 309 309 307 307 306 305 304 304 303
319 319 319 319 319 318 318 317 316 317 318 318 316 315 316 317 318 318 318 319 321 320 320 322 322 321 321 322 323 322 319 320 320 320 320 320 321 322 321 320 320 321 322 321 321 321 321 322 322 318 314 315 317 316 316 318 318 317 316 317 318 318 319 321 322 321 320 321 323 323 324 326 320 315 317 319 316 313 310 308 308 307 307 307 306 305 305 304
319 319 319 319 319 319 318 317 316 316 317 317 314 315 316 316 317 318 318 318 320 321 321 322 323 323 323 322 323 322 320 320 321 321 321 320 321 322 321 319 319 320 321 321 320 320 322 322 321 320 317 316 316 315 314 316 317 317 317 317 318 318 318 321 323 323 322 321 322 322 323 323 319 315 315 316 315 312 310 308 307 307 308 307 306 306 305 304
318 318 319 319 319 319 318 318 318 317 317 315 313 314 315 316 317 318 318 319 320 320 321 321 322 323 323 323 323 323 321 321 321 321 321 321 321 321 320 319 319 319 318 319 319 318 320 322 322 321 320 316 314 314 313 314 315 317 318 318 319 318 318 320 321 321 322 322 321 322 322 321 317 315 312 309 309 310 310 309 308 307 308 307 307 306 305 304
317 317 318 319 319 319 318 318 318 317 316 315 313 314 315 316 316 316 318 319 319 319 320 320 321 321 323 324 325 323 322 322 322 321 320 322 321 317 317 319 319 318 318 319 319 318 319 320 321 322 323 320 317 316 315 315 314 316 317 317 317 318 318 319 318 318 320 321 322 321 321 321 318 314 310 308 308 310 310 310 310 308 307 307 307 307 306 305
316 316 315 316 317 318 319 319 318 316 316 315 314 314 314 315 316 316 317 318 319 319 319 319 320 320 322 325 324 323 323 322 322 322 321 322 321 315 314 318 318 318 318 317 317 318 320 321 320 321 324 324 322 321 319 317 314 314 316 316 316 318 319 319 318 319 319 321 322 321 321 322 318 313 311 311 311 310 309 310 310 309 308 307 307 307 306 305
315 315 314 314 315 316 317 317 317 317 316 316 315 314 314 315 316 316 317 318 319 319 319 319 319 319 321 323 322 322 323 322 322 323 321 323 323 315 311 313 315 316 315 316 316 316 318 319 319 321 323 323 324 324 321 318 316 315 316 316 316 317 318 318 318 319 319 320 321 320 320 322 320 316 314 314 313 312 310 308 309 310 309 308 307 307 307 306
315 314 313 314 314 315 315 315 316 317 317 316 316 315 315 315 316 316 317 318 318 319 319 319 320 321 321 321 321 322 322 322 322 322 321 321 320 313 309 310 312 313 312 312 314 316 318 319 319 320 321 321 324 324 320 318 318 317 316 316 316 316 317 318 318 319 319 320 320 320 321 322 320 317 316 315 314 313 311 307 307 309 310 308 308 307 307 306
315 314 313 313 314 315 315 315 315 316 316 316 316 316 316 316 316 317 317 317 317 318 319 320 320 321 320 320 321 321 321 322 322 321 320 320 318 313 312 311 310 310 311 310 310 314 319 319 318 319 320 319 321 322 319 319 318 318 317 316 315 315 316 317 317 318 319 320 320 321 323 322 319 317 316 315 313 312 311 309 307 309 309 309 308 307 307 306
313 313 312 313 314 314 313 313 313 314 316 316 316 315 315 315 316 316 317 317 317 318 319 319 319 320 320 320 321 321 321 322 322 321 320 320 318 315 315 315 311 308 309 310 309 311 316 318 318 319 319 318 319 319 319 318 318 317 318 317 316 315 315 316 316 316 317 318 318 320 322 320 319 318 315 313 312 310 310 309 308 307 308 308 308 308 307 307
312 312 311 312 312 312 311 311 312 312 313 314 315 315 314 315 315 316 316 318 318 318 318 319 319 319 319 320 321 322 321 320 322 321 320 319 317 315 316 317 314 309 309 311 311 311 314 317 318 318 318 318 317 318 318 317 317 317 318 318 317 316 314 315 315 315 316 317 316 317 319 318 316 315 313 312 311 310 309 308 307 307 307 307 307 308 307 307
311 312 312 311 312 311 311 312 311 310 310 311 313 314 313 314 315 315 316 317 317 318 318 318 319 318 319 319 320 321 320 320 320 319 318 318 316 316 315 315 314 312 309 310 312 312 312 315 316 317 318 318 317 318 317 315 315 316 316 316 316 316 316 315 314 315 315 316 316 316 316 317 316 315 312 309 309 309 308 307 307 307 307 308 307 307 307 307
310 311 311 312 312 311 311 312 312 310 310 310 310 312 313 313 313 315 316 315 314 315 316 318 318 319 319 319 319 319 319 318 318 317 316 316 315 314 314 312 312 312 310 310 311 311 311 313 315 315 317 318 317 317 316 314 315 317 316 316 315 314 315 315 314 315 314 314 316 316 315 316 317 316 314 313 312 310 308 308 309 308 308 308 308 308 308 308
Wind_Speed
9 9 9 8 7 7 7 6 6 6 6 6 6 6 7 7 7 7 7 6 5 4 3 2 2 2 2 3 4 4 4 3 4 4 2 3 4 1 4 4 3 3 5 5 5 6 7 6 4 4 3 2 3 3 4 5 4 2 0 2 3 1 2 1 2 4 5 6 6 7 3 1 4 6 3 1 3 4 4 7 4 3 2 3 1 2 4 3
9 8 8 7 7 7 6 6 6 6 6 6 6 6 7 7 6 7 6 5 5 4 3 2 2 2 3 4 5 5 4 4 3 2 4 4 2 4 6 5 5 5 7 6 5 4 5 4 3 4 3 2 1 2 2 4 5 2 1 2 2 2 3 4 7 7 3 6 7 7 3 1 2 4 3 1 4 7 5 7 6 4 4 2 1 2 3 2
8 8 7 7 7 7 7 7 6 6 6 6 6 6 6 6 6 6 6 5 5 4 3 3 3 3 4 4 5 5 4 5 1 2 4 1 5 7 7 6 4 6 9 7 6 3 2 2 2 3 5 3 1 2 0 2 4 0 1 2 2 3 5 7 10 9 8 7 6 6 4 1 0 2 2 2 4 4 3 6 7 9 6 3 2 3 2 1
8 7 7 7 7 6 6 6 6 6 6 6 6 6 6 6 6 6 6 5 5 4 4 4 4 4 4 5 5 5 7 6 1 3 3 3 8 8 7 5 2 6 10 8 6 4 2 1 3 4 7 4 3 1 1 2 4 2 2 1 3 2 3 7 10 9 7 7 5 4 2 2 1 2 1 2 4 1 5 6 8 10 7 4 3 3 3 2
8 7 7 7 7 6 6 6 6 7 7 7 6 6 6 6 6 6 6 5 5 5 5 4 4 5 5 5 5 6 7 3 2 1 1 5 6 6 6 3 2 6 10 8 6 6 4 3 4 5 6 3 4 2 1 4 4 3 2 4 5 4 2 7 8 6 4 4 3 2 1 2 1 1 3 3 3 2 4 4 5 7 7 5 4 4 4 3
9 9 8 8 8 7 7 7 7 7 7 7 7 7 7 6 6 6 6 6 6 6 5 5 5 5 5 5 5 5 5 2 1 1 2 3 5 5 5 3 5 9 10 8 7 6 5 3 4 6 6 3 0 1 3 2 3 2 1 5 5 3 3 5 4 3 3 2 0 1 1 2 3 5 6 4 2 4 6 4 4 6 6 5 5 6 4 3
10 9 9 8 8 8 8 8 8 8 8 8 8 7 7 7 7 8 8 7 7 6 6 5 5 5 5 5 4 4 3 2 2 1 1 2 5 5 5 6 9 11 9 7 5 5 5 4 5 5 5 4 2 3 3 2 3 2 1 4 5 2 2 4 3 2 2 1 2 2 3 4 5 5 4 4 5 7 7 5 6 6 5 6 7 5 3 3
10 9 8 8 8 8 8 9 9 9 9 9 9 9 9 9 9 9 8 8 7 7 6 5 6 5 5 5 4 5 4 4 3 2 3 4 6 7 8 10 11 10 8 5 2 3 3 5 6 5 4 2 2 1 2 3 4 2 1 3 3 1 1 3 3 3 4 4 4 5 5 7 9 6 3 6 8 9 7 5 5 6 6 7 6 4 3 3
10 9 8 8 8 8 8 9 10 10 10 11 11 11 10 10 10 9 9 8 7 7 6 6 6 5 6 4 3 5 3 5 4 4 4 5 7 9 11 12 11 8 6 4 1 0 2 3 4 3 4 4 3 2 3 2 2 2 3 2 1 2 4 5 6 7 7 7 6 5 7 10 10 7 3 7 11 10 7 6 6 6 6 5 4 3 4 5
12 11 10 9 8 8 8 9 10 11 11 12 12 12 12 11 11 10 9 9 8 8 7 7 6 5 5 2 1 3 2 4 4 3 4 5 7 8 10 9 9 6 2 3 1 1 3 4 2 3 5 5 3 1 2 1 1 3 4 5 6 8 7 7 8 9 8 8 9 7 7 9 7 6 2 7 13 10 8 8 7 6 5 4 3 4 5 6
14 12 11 11 10 10 9 10 11 12 13 13 13 13 13 12 11 11 10 9 9 8 7 7 7 6 4 2 3 4 3 5 4 3 5 6 7 7 7 6 5 4 1 1 2 2 4 4 3 3 4 2 1 1 0 1 1 3 4 6 10 12 11 10 10 10 8 5 10 10 7 4 5 3 5 11 13 10 10 9 8 7 5 5 5 5 6 7
16 15 13 12 11 11 10 11 11 12 13 13 14 14 13 12 12 11 11 10 9 9 8 8 7 6 5 5 9 10 7 8 7 7 9 9 9 7 6 5 4 3 2 2 3 4 3 3 3 3 3 3 2 1 1 1 1 3 3 5 7 8 9 13 13 11 9 4 8 9 4 5 6 4 7 13 13 11 11 9 8 7 6 6 6 6 7 7
18 16 15 14 13 12 12 11 12 12 13 14 14 14 13 13 12 12 11 11 10 9 8 7 6 6 6 6 9 11 10 12 12 12 12 11 11 9 7 7 5 5 4 4 5 6 5 4 4 3 4 5 3 1 1 0 1 3 4 3 4 5 5 12 13 10 8 4 8 9 1 6 8 7 11 13 14 15 12 10 9 7 6 6 6 6 7 7
19 18 17 16 14 13 13 12 13 13 13 13 14 14 14 13 13 12 12 11 10 9 8 7 6 6 6 7 8 10 11 12 13 13 12 10 10 10 9 8 7 7 6 7 8 7 6 4 5 4 5 4 2 1 2 2 3 3 3 2 2 3 3 5 10 11 7 4 10 8 2 5 3 9 12 12 14 15 12 11 10 8 7 7 6 6 7 6
22 20 19 18 16 15 14 14 13 13 13 13 13 13 13 13 13 13 12 11 10 9 8 7 6 5 5 8 9 11 13 14 16 16 13 12 11 10 10 10 9 9 9 9 7 6 5 5 5 3 2 3 1 1 3 3 4 2 2 3 2 3 2 2 8 11 5 3 10 7 2 3 3 9 12 13 15 14 12 12 12 10 9 8 7 6 6 7
23 22 21 19 18 17 16 15 14 14 14 13 13 13 13 14 13 12 12 11 10 9 7 5 5 5 4 7 9 10 12 14 16 16 14 13 11 10 12 10 8 8 7 6 5 4 5 5 4 3 2 2 2 2 3 4 3 3 4 4 3 4 4 2 5 9 6 5 9 7 3 2 3 10 13 14 16 14 12 13 13 11 10 9 8 8 8 7
24 23 22 20 19 19 18 16 15 14 14 14 13 12 13 13 13 12 11 10 9 7 6 4 3 5 6 8 9 11 14 15 14 12 12 12 12 12 11 7 5 6 4 4 5 5 6 5 2 3 3 3 3 3 2 4 4 3 4 4 5 5 5 2 1 5 7 5 6 7 6 6 3 11 15 16 18 16 15 14 14 13 11 10 10 9 8 6
25 24 22 21 20 20 19 17 15 14 14 14 12 12 12 12 11 11 10 9 8 5 6 7 5 2 8 13 12 12 13 13 11 12 11 11 12 11 8 4 3 3 4 5 6 7 6 5 3 1 2 3 4 4 4 4 4 4 3 3 4 4 5 4 1 4 8 4 5 6 7 8 5 10 15 18 19 18 17 15 15 14 12 12 11 10 9 8
25 24 22 21 21 20 20 18 16 15 14 13 11 11 10 9 8 9 10 10 9 5 3 9 14 5 1 9 14 13 12 9 8 10 11 11 11 10 8 5 5 7 7 4 5 9 8 4 3 1 3 5 5 6 7 7 6 5 3 1 3 3 4 3 1 5 6 3 6 7 7 8 6 7 12 17 19 18 17 15 15 14 14 13 11 11 11 11
24 23 22 21 21 21 20 19 17 15 14 13 11 9 7 5 4 6 10 14 18 16 8 7 15 13 2 4 10 12 10 8 7 10 12 12 10 11 10 7 7 7 5 4 5 7 8 4 3 5 6 7 8 10 10 9 8 5 2 3 5 4 5 4 1 4 2 1 5 6 6 9 7 5 11 18 18 15 15 15 16 16 15 15 13 13 12 13
23 23 22 20 20 21 21 19 17 15 15 14 13 10 5 4 3 2 5 12 19 23 21 13 11 14 11 7 9 10 8 8 9 11 11 11 11 10 10 10 7 4 7 7 4 3 5 5 7 8 8 8 8 9 10 10 9 6 2 4 5 3 6 5 1 4 3 1 4 6 7 9 9 7 10 18 14 14 19 18 18 19 17 16 15 15 14 15
20 21 21 20 20 21 21 19 16 16 16 15 16 15 9 5 6 4 3 7 14 17 22 23 19 17 16 13 11 10 9 8 9 12 12 14 15 10 11 11 5 3 7 8 4 3 4 6 8 11 9 9 6 3 4 7 6 5 3 3 4 4 5 3 2 3 2 1 3 5 7 8 9 8 7 18 17 17 23 21 20 21 19 18 17 17 17 17
18 19 19 19 20 20 21 18 16 17 18 18 18 18 14 6 4 5 5 7 12 16 20 24 25 24 20 17 16 15 14 10 10 15 16 17 17 14 13 11 6 6 7 7 5 4 5 6 10 14 11 8 5 2 2 3 2 3 3 3 4 4 4 3 1 2 2 2 4 5 7 8 8 9 8 16 17 12 15 16 15 17 19 18 17 17 18 17
16 17 18 18 18 20 20 16 15 17 18 20 19 19 17 9 4 4 6 6 9 14 21 23 24 27 25 22 21 20 19 15 12 15 19 21 19 15 12 10 8 6 6 9 9 8 8 4 7 12 10 7 5 4 4 3 3 5 6 5 5 4 6 6 3 3 3 4 5 3 7 7 8 12 9 7 8 6 9 11 10 13 14 14 15 15 15 15
16 16 17 16 17 18 16 14 17 19 18 19 19 18 17 11 5 1 3 5 7 8 14 18 20 25 27 24 22 19 17 17 17 16 20 25 21 12 8 11 9 5 8 11 9 9 10 6 6 7 7 7 6 5 6 6 4 4 6 8 9 8 6 5 3 2 2 3 3 2 3 5 4 9 7 5 4 4 8 10 11 13 13 14 16 15 14 14
18 17 16 16 18 17 15 16 19 19 17 19 18 16 15 11 6 2 1 2 6 4 6 12 14 15 20 22 21 16 8 11 17 16 18 24 23 15 7 9 8 6 7 8 7 5 3 4 6 5 6 6 6 5 5 7 4 4 4 4 7 7 4 3 5 3 1 3 1 3 2 5 5 4 4 6 6 6 8 9 13 16 16 17 18 18 17 17
20 18 16 17 19 20 19 18 18 17 16 17 15 14 14 13 8 4 3 3 7 6 9 10 11 10 13 19 26 18 2 6 14 15 21 24 23 18 9 6 7 5 3 2 5 2 3 5 3 4 6 5 6 5 5 8 4 3 3 3 2 2 1 1 2 3 3 3 2 4 3 5 8 5 6 8 7 7 8 9 11 18 21 20 20 21 22 21
22 20 18 18 22 25 23 17 16 18 17 13 11 12 15 15 11 7 3 4 3 7 8 7 10 11 12 18 28 17 6 12 10 10 24 26 21 16 9 8 7 6 5 4 5 1 3 7 6 7 7 5 5 3 5 9 5 2 1 3 5 4 1 1 2 3 3 4 3 5 5 4 8 3 6 8 7 8 11 11 11 17 23 23 23 24 25 25
24 22 20 19 22 26 24 18 15 17 16 10 8 14 18 18 12 5 1 3 2 5 4 8 9 11 15 18 22 14 8 7 2 7 21 22 19 11 4 9 7 5 9 11 8 1 1 3 4 6 6 5 3 3 1 6 5 4 3 5 5 3 2 1 1 1 2 5 6 6 6 4 7 2 5 4 4 8 11 9 11 18 24 25 25 26 26 27
26 24 21 20 24 28 27 24 19 15 13 13 13 19 24 18 8 3 3 4 2 2 6 9 9 13 18 14 10 8 6 2 4 11 13 11 14 8 2 6 5 3 4 8 7 2 3 2 1 1 2 3 5 5 6 2 6 8 5 5 4 1 2 1 1 1 1 7 7 9 10 6 5 3 7 5 5 8 8 6 9 16 22 25 26 27 28 28
29 28 25 24 29 30 30 31 27 17 15 17 19 26 24 10 2 5 7 1 3 2 7 5 6 13 17 12 8 8 6 3 8 12 7 5 8 5 2 5 3 1 1 4 4 1 3 2 1 1 3 6 6 4 6 5 4 6 4 4 3 1 3 2 1 2 2 7 4 9 13 11 7 5 4 5 4 7 8 8 10 14 21 25 26 28 29 30
31 31 30 29 31 31 33 35 28 21 19 20 27 30 18 4 1 7 6 3 2 5 8 6 7 10 13 12 9 9 7 6 9 9 5 5 6 6 7 6 6 4 3 5 3 1 3 4 4 3 4 8 6 3 3 4 1 3 4 5 4 1 0 0 2 3 5 7 3 3 7 8 9 7 6 6 3 3 5 12 17 19 24 27 28 29 30 31
34 34 34 32 33 35 36 33 28 27 23 24 31 23 8 3 7 10 10 5 1 2 6 8 9 11 13 11 6 7 7 5 9 9 5 6 6 6 8 7 8 6 3 6 5 2 2 4 7 4 3 11 10 6 4 1 3 6 6 6 5 3 2 3 4 3 5 5 3 2 1 3 4 5 10 10 3 3 4 15 24 28 30 30 30 31 30 32
37 37 38 36 35 36 35 31 31 31 26 27 26 13 5 8 11 12 15 13 5 2 4 7 10 11 11 8 5 8 5 3 9 9 5 7 5 6 8 9 12 8 1 4 4 6 4 4 7 8 4 12 14 10 8 5 5 8 6 5 5 4 3 3 4 3 3 2 3 2 2 3 2 2 4 2 4 6 7 14 24 26 29 30 29 30 31 33
42 41 41 40 38 38 36 35 35 33 31 29 18 8 10 12 12 14 15 13 8 2 3 7 9 9 8 5 5 8 4 2 8 8 6 8 7 8 9 10 14 10 5 4 2 6 7 5 6 8 6 14 14 11 8 8 3 5 4 5 6 4 3 3 2 2 1 2 2 2 3 4 3 1 1 4 6 6 5 12 22 22 26 29 29 31 32 34
42 43 42 42 44 43 40 39 36 35 37 28 12 8 14 13 12 11 9 11 11 7 7 7 6 6 7 4 4 7 3 3 7 6 4 7 7 8 9 8 13 13 9 8 3 4 6 3 2 4 4 9 8 7 9 7 3 3 4 6 4 2 3 3 2 2 2 4 4 4 3 4 1 1 2 5 5 3 1 7 18 22 26 29 29 32 34 36
36 42 43 45 47 45 43 42 38 41 42 27 11 11 12 13 13 7 5 12 14 11 9 6 6 7 7 5 5 8 5 3 7 6 3 4 5 9 10 8 14 18 15 10 3 1 4 1 1 1 3 3 1 1 4 2 3 4 4 5 3 4 1 1 2 2 2 6 4 5 6 4 3 3 2 5 4 4 5 6 12 18 24 27 28 32 35 37
35 40 42 46 48 47 47 44 42 48 40 18 11 14 11 13 16 10 9 12 12 13 11 9 8 8 9 7 6 11 9 5 8 6 5 5 4 9 13 9 13 20 21 14 4 2 3 2 3 1 1 0 2 2 2 2 2 4 2 3 3 1 1 3 2 3 4 6 5 3 7 6 6 5 4 7 9 9 8 8 9 15 22 25 27 30 33 35
35 34 36 45 48 49 48 45 49 50 30 8 9 13 10 14 18 16 15 12 10 12 11 11 10 7 10 10 6 10 12 9 10 7 5 6 4 9 15 11 10 18 23 18 7 2 2 2 3 3 2 2 1 1 4 3 2 1 2 3 1 2 3 4 3 2 3 4 5 3 4 4 6 7 10 12 13 12 12 11 10 15 23 28 29 32 35 37
34 24 27 44 47 47 51 51 47 35 15 8 11 10 9 12 15 20 23 16 8 10 10 10 13 10 10 12 8 9 11 9 11 9 6 7 5 6 13 12 8 11 19 18 9 1 2 3 3 2 3 2 2 5 9 10 8 4 2 4 3 2 1 1 2 3 3 3 4 4 5 5 3 3 10 15 13 12 15 14 12 17 26 30 31 35 39 41
30 15 20 38 42 46 55 47 30 16 7 7 11 12 12 10 10 16 24 20 10 8 8 6 10 11 10 11 9 8 9 8 9 8 6 9 8 4 10 16 12 10 10 8 7 5 3 3 4 1 1 4 5 6 8 9 9 9 8 8 8 6 4 2 4 4 4 4 3 3 6 6 3 2 2 9 9 11 16 16 14 20 27 30 32 37 40 43
22 11 15 24 31 48 53 28 11 11 8 9 15 14 9 6 8 11 17 19 14 8 5 3 5 8 8 10 9 7 8 7 9 10 6 10 11 6 13 22 19 17 13 5 8 9 4 3 4 3 3 4 3 2 2 2 2 3 4 6 6 6 6 6 6 4 4 3 1 1 5 6 3 2 3 2 3 8 18 20 17 22 29 31 32 35 38 41
14 11 14 15 24 48 44 13 7 11 6 10 18 15 8 6 9 9 10 15 13 8 7 4 4 6 7 8 8 8 9 7 9 12 9 10 9 4 14 26 22 17 12 5 5 6 4 3 4 3 1 1 1 0 2 3 2 1 3 4 7 8 9 7 5 2 2 4 3 2 6 6 2 2 3 2 4 6 15 21 20 21 26 29 30 32 35 37
15 13 13 15 28 44 30 6 7 10 8 11 13 13 15 11 11 12 10 12 11 8 8 7 5 6 5 3 3 6 9 6 8 11 9 8 6 1 10 25 23 14 9 7 8 10 5 3 4 3 2 2 1 1 1 2 1 3 5 6 9 10 9 5 1 1 4 7 7 5 8 6 2 1 1 1 3 6 8 15 20 21 23 26 28 29 32 35
14 10 12 19 34 42 28 16 15 10 10 14 11 14 18 11 13 20 17 13 13 10 8 9 11 9 5 1 1 4 7 7 7 7 6 5 2 1 4 15 19 14 9 9 15 17 9 4 7 7 8 10 7 4 4 3 2 3 5 9 12 12 12 8 3 4 9 6 8 8 11 5 2 1 2 1 3 4 5 10 16 21 24 26 27 28 30 33
9 5 6 13 24 29 23 22 22 12 10 13 10 13 18 13 14 22 19 13 16 16 11 9 11 10 8 8 8 9 11 11 4 2 5 5 2 1 2 6 8 9 7 8 14 13 4 2 10 13 13 13 9 4 4 7 7 8 10 13 14 14 14 8 5 9 9 4 6 13 10 6 5 4 5 5 5 5 5 8 11 17 22 26 27 29 30 33
9 5 6 5 10 15 12 11 14 11 14 16 8 8 18 18 12 14 18 17 18 19 13 7 8 10 11 14 14 13 14 12 4 1 5 6 1 2 1 1 2 5 7 7 9 7 3 4 12 15 16 15 8 3 5 8 11 13 14 15 15 14 14 12 12 12 6 4 12 10 8 10 11 7 8 8 7 6 7 11 15 17 21 25 27 28 28 30
12 7 15 16 7 4 7 6 6 9 16 18 10 6 14 18 14 12 16 19 19 18 11 5 10 16 17 17 14 11 12 12 9 8 8 4 3 2 1 3 3 4 6 5 4 3 3 6 10 11 16 17 9 5 5 6 6 7 11 15 16 16 18 18 20 17 9 9 16 7 12 15 12 8 10 9 9 11 11 15 19 19 20 23 26 27 28 29
12 5 13 20 11 5 8 6 1 4 11 13 11 10 11 17 19 15 11 10 12 16 14 11 15 19 19 17 13 10 11 11 11 12 10 6 5 4 3 2 4 4 3 3 2 2 3 5 6 9 13 17 13 10 6 6 3 4 7 12 15 19 22 21 22 21 14 17 20 7 6 12 6 6 10 10 13 15 12 14 18 21 21 22 23 25 27 29
14 8 9 13 8 6 9 8 3 3 6 7 10 11 12 15 19 16 11 10 10 12 16 19 22 20 17 17 15 13 14 15 16 14 10 8 6 6 6 4 4 5 4 3 2 2 3 4 4 7 8 13 13 12 8 6 7 7 8 11 13 15 17 18 20 18 14 19 22 12 10 12 3 4 4 7 12 14 14 14 17 20 20 20 20 21 24 27
19 15 12 10 5 6 8 6 6 4 2 4 6 7 11 17 17 13 11 12 13 11 13 20 24 17 13 16 18 19 20 19 15 11 11 14 12 10 8 6 7 8 6 5 3 2 4 3 2 5 7 12 10 11 9 4 2 7 14 18 16 11 11 15 17 15 15 18 19 15 14 12 4 6 5 5 9 11 11 13 15 15 15 15 17 20 22 24
18 18 16 12 7 8 9 5 5 6 4 4 6 5 8 12 11 8 6 8 13 13 12 16 17 10 9 14 19 23 23 17 10 7 11 16 14 9 9 10 12 12 8 6 3 2 5 3 1 5 7 8 4 7 7 4 1 7 15 18 16 13 11 13 14 15 17 16 13 13 13 8 5 7 5 3 4 6 8 10 9 9 12 14 17 18 19 20
Wind_Direction
203 203 205 207 208 207 210 210 207 203 197 197 192 185 180 178 175 174 177 179 186 196 207 229 268 304 323 326 327 328 333 342 346 341 297 283 305 234 161 142 112 65 38 21 19 24 11 5 346 338 354 356 10 351 342 4 360 351 338 238 255 197 101 315 62 95 142 130 133 138 147 228 136 154 167 271 230 217 181 139 164 222 218 231 246 304 306 311
199 200 201 203 203 202 203 203 201 199 197 197 190 183 182 180 178 180 189 195 203 215 224 250 277 301 317 318 319 324 323 329 344 314 282 273 240 159 149 134 102 52 31 18 27 30 354 345 329 323 308 270 41 7 1 355 332 315 287 277 309 54 47 11 58 59 58 108 121 116 100 292 109 129 137 278 223 203 178 128 146 132 116 226 257 308 299 277
200 199 201 203 204 202 202 203 202 199 200 201 195 191 191 189 190 193 202 210 218 230 244 263 284 294 305 309 315 324 314 319 324 238 289 241 165 157 148 137 101 39 25 20 29 34 345 347 327 318 300 266 92 1 245 335 318 320 319 333 37 83 72 41 64 60 37 71 104 108 105 276 346 103 111 312 277 220 130 112 139 118 119 227 274 290 263 197
203 204 206 207 209 209 207 208 208 205 206 206 204 202 202 204 205 209 216 223 232 244 257 267 281 289 298 310 317 321 314 321 162 221 284 162 159 159 157 152 92 14 9 13 26 28 46 13 325 322 298 264 137 290 294 30 331 332 340 47 53 27 78 69 69 71 53 55 64 77 79 280 170 142 158 286 295 318 80 92 131 130 149 213 269 266 227 169
209 212 214 216 217 218 217 217 217 216 214 211 212 212 212 215 215 220 227 233 242 248 260 266 278 288 298 311 320 327 322 334 121 144 122 157 165 165 174 184 316 342 351 3 25 23 36 24 317 293 280 247 154 214 31 42 322 315 36 85 58 1 51 91 82 83 70 54 57 51 340 336 72 234 258 249 266 139 124 133 149 159 186 221 258 244 210 182
215 215 219 224 225 228 228 228 228 227 227 222 220 220 223 226 227 232 234 238 243 246 256 264 277 287 297 312 322 330 327 325 9 86 118 167 175 178 200 234 302 324 339 359 24 16 12 359 294 278 284 279 149 94 80 25 328 324 92 85 68 18 53 99 102 110 98 59 52 284 303 352 342 293 273 240 220 178 173 206 239 233 223 224 230 212 196 188
219 218 221 226 228 233 236 237 238 237 239 236 231 229 231 233 233 235 236 239 242 246 254 264 277 285 297 308 319 328 312 279 277 228 196 203 197 207 238 269 297 315 334 360 18 356 340 306 287 298 302 291 335 60 79 334 295 274 218 111 91 27 57 114 144 172 164 194 222 284 299 286 285 284 264 200 198 215 215 245 254 233 205 193 197 190 189 195
224 225 227 231 234 238 240 243 244 244 245 244 242 237 235 235 236 236 237 240 241 248 255 263 276 284 296 308 332 326 286 229 228 269 255 232 232 242 261 279 296 310 328 355 9 321 311 288 298 318 314 330 11 16 44 328 262 263 2 97 96 315 220 165 177 205 210 214 233 265 269 262 256 254 239 185 199 228 233 238 217 185 171 175 179 181 212 231
229 231 234 239 245 247 248 250 248 248 247 246 246 242 240 238 239 240 239 243 244 251 256 263 275 283 294 310 344 315 268 201 220 276 271 253 255 260 271 282 292 304 330 350 33 248 298 310 325 336 327 338 345 344 55 21 275 3 14 20 329 237 222 206 200 211 211 214 225 232 247 256 245 237 243 185 202 225 222 206 181 162 165 168 176 208 243 255
233 234 238 241 249 255 257 258 255 253 250 248 248 245 243 241 241 243 243 246 248 253 260 266 273 279 289 310 319 282 226 198 233 273 279 272 268 271 277 281 289 295 338 345 357 111 286 303 314 313 311 298 291 321 51 16 358 7 341 315 283 260 246 219 217 226 210 207 209 199 247 253 211 209 226 183 205 219 199 186 170 164 179 189 214 237 248 252
237 237 240 242 246 254 259 263 261 257 252 250 249 247 246 245 244 245 246 249 251 255 260 265 270 273 273 232 229 249 224 224 243 268 281 287 282 281 280 278 285 275 176 271 296 235 240 260 267 283 294 292 306 174 344 322 357 353 323 302 270 250 243 225 225 228 203 200 204 203 257 245 156 204 213 187 200 200 179 175 169 176 199 217 234 245 249 247
239 240 241 244 247 251 257 263 264 261 256 252 251 251 249 248 246 246 249 250 252 256 259 264 266 263 258 237 239 244 245 251 259 271 279 284 280 274 272 270 268 253 199 178 256 257 245 248 245 266 280 300 328 177 112 3 319 321 290 291 279 253 240 221 214 211 195 187 186 186 264 237 196 203 182 182 185 168 164 171 170 185 212 227 236 237 239 239
242 242 245 247 248 252 256 260 264 264 259 254 253 253 253 252 250 249 249 250 252 254 255 258 259 256 252 247 249 249 251 259 266 273 274 274 269 262 257 257 251 244 221 206 248 270 270 256 229 251 279 287 311 271 350 71 188 294 251 229 289 290 256 210 193 177 172 167 167 162 244 246 210 168 158 174 174 160 162 173 177 190 212 228 238 239 240 234
244 245 246 249 251 253 256 260 264 264 261 257 253 253 254 255 254 252 251 251 252 252 253 250 249 248 241 250 260 253 251 258 265 268 267 263 257 255 252 249 245 238 241 254 271 276 261 229 206 236 256 259 318 347 298 240 189 280 271 199 227 273 291 185 157 150 158 175 171 165 261 264 173 145 162 176 173 167 169 176 183 190 203 224 229 235 250 244
243 245 246 248 252 253 256 260 264 266 262 257 254 253 254 254 255 254 252 251 250 250 250 245 240 238 246 259 259 251 251 253 258 260 257 254 250 249 247 242 242 245 257 267 266 254 227 191 202 234 207 197 271 303 279 250 200 209 243 259 225 195 240 164 155 169 172 174 178 173 254 252 140 150 170 176 177 176 177 182 184 189 196 215 221 211 231 244
242 243 245 247 249 252 256 257 261 265 263 259 254 251 250 252 253 252 253 251 251 250 243 241 234 229 255 261 246 248 252 245 250 256 252 249 241 238 244 244 247 253 257 254 236 212 189 179 217 233 155 166 207 219 269 275 246 196 189 254 253 203 215 169 177 195 163 134 185 200 244 275 135 164 177 183 186 182 186 190 186 193 197 203 212 199 211 237
242 242 243 245 248 251 253 254 257 259 260 258 253 250 249 250 250 250 251 247 248 243 225 216 218 237 251 250 244 248 249 244 247 251 247 242 233 233 243 245 246 251 234 212 204 192 187 184 212 232 201 218 225 195 237 261 250 220 189 224 246 239 231 194 201 207 169 156 207 213 232 262 182 167 182 191 189 186 195 198 189 194 199 199 203 200 208 220
244 243 242 243 246 249 250 252 252 252 253 253 252 251 247 247 249 247 247 244 237 229 227 206 169 251 252 233 230 236 242 244 244 245 240 231 228 229 228 215 210 195 172 189 194 185 189 186 179 260 226 209 221 197 195 219 235 254 223 217 257 258 241 231 209 179 179 195 238 215 223 248 210 170 186 193 190 192 199 199 193 195 196 198 200 198 199 194
245 244 242 241 243 246 248 249 249 248 246 245 245 244 243 243 247 251 247 233 206 186 233 207 190 188 271 214 215 223 234 238 235 233 227 220 218 206 189 180 181 171 167 175 187 185 181 165 157 233 235 204 207 209 212 226 250 290 306 288 301 301 267 265 105 166 184 201 235 231 239 252 227 179 186 193 193 197 202 198 191 191 192 196 196 196 196 195
247 246 244 241 240 241 245 247 247 244 238 235 227 219 229 231 233 251 234 226 223 221 232 218 206 216 226 178 203 213 218 218 214 216 220 217 203 187 175 167 175 187 201 181 169 184 176 171 200 209 220 213 210 215 225 246 262 290 331 293 289 290 274 282 118 164 175 197 234 242 257 263 258 219 189 190 192 199 206 198 188 189 191 193 192 193 197 203
247 247 244 241 238 238 240 243 243 238 231 225 210 191 180 196 204 229 224 239 247 241 237 237 225 229 235 224 214 214 201 188 197 210 215 200 179 171 171 169 169 196 227 206 154 140 176 203 224 217 224 232 233 226 221 235 255 259 267 282 277 262 265 274 167 155 117 76 258 265 273 269 268 258 184 175 184 202 206 198 190 193 193 194 194 192 197 207
247 246 245 241 237 234 235 237 237 234 227 216 205 190 177 184 199 217 276 274 271 260 246 239 236 237 237 228 218 214 196 171 189 209 201 178 173 174 174 177 189 197 206 203 139 102 215 233 231 227 237 239 244 270 234 232 251 253 250 273 264 260 275 284 104 125 105 92 269 279 281 271 266 269 193 175 189 206 207 204 200 197 192 191 194 193 198 208
247 246 245 240 235 233 231 231 231 231 224 215 210 199 193 187 192 235 284 289 279 269 252 242 236 232 228 222 218 212 204 191 195 207 196 177 178 185 178 176 206 215 194 195 183 179 216 231 225 226 238 239 219 201 259 268 273 243 233 241 248 252 264 269 119 173 177 202 262 292 289 274 263 267 230 189 191 195 196 199 198 195 192 192 195 197 202 206
249 248 245 239 233 229 225 225 229 230 225 221 219 208 202 198 189 257 281 281 279 260 248 246 238 228 222 222 226 220 217 218 212 206 197 185 179 182 188 188 202 219 205 197 202 218 235 233 205 211 217 216 209 199 201 225 248 230 216 219 238 242 234 239 231 189 185 220 238 275 290 273 241 242 236 177 165 160 169 180 179 178 183 188 192 195 203 207
246 248 246 237 226 221 215 218 227 231 229 226 224 215 207 202 190 273 301 275 265 244 240 237 230 230 223 221 225 217 218 228 223 211 200 192 184 177 192 198 200 219 214 205 209 232 246 227 177 193 199 187 204 221 193 190 236 244 217 214 223 238 251 268 314 359 340 286 224 154 277 271 237 234 221 143 143 176 171 184 192 184 178 180 183 183 189 195
243 243 242 234 219 204 199 216 230 233 234 231 226 214 203 190 173 167 70 299 262 209 187 202 207 223 216 206 199 193 215 231 215 208 200 195 191 185 187 193 200 224 218 211 219 241 236 179 157 170 178 172 198 231 191 176 213 255 254 238 215 225 261 311 339 344 283 284 257 141 221 270 291 270 197 163 194 201 182 195 204 198 192 187 182 180 180 181
240 236 234 230 214 195 195 216 230 227 226 232 226 204 191 176 156 133 114 297 264 171 146 176 186 191 197 191 182 180 207 168 173 190 190 190 193 191 195 190 190 217 228 216 226 224 117 146 147 149 166 176 197 220 190 168 183 239 284 354 94 173 258 283 294 250 242 300 278 178 183 274 281 255 179 171 189 204 202 205 205 198 196 194 189 188 185 182
238 235 231 225 216 206 202 214 231 224 217 226 219 190 177 166 150 125 127 274 246 141 143 167 172 171 166 176 180 174 125 138 147 187 184 184 190 191 207 211 189 188 194 204 220 261 106 164 173 168 180 200 197 216 193 174 177 226 239 42 75 86 39 309 256 250 285 319 265 191 163 257 277 240 154 167 189 215 214 206 202 194 191 192 190 191 191 186
232 232 230 223 218 212 204 205 221 227 218 209 191 173 165 157 144 116 160 247 165 115 138 152 154 154 143 162 183 169 127 141 130 178 179 184 187 179 205 221 219 205 200 213 222 259 50 172 178 175 194 209 170 24 337 176 174 185 146 78 74 77 60 38 261 240 306 276 237 193 166 215 272 246 142 166 219 228 224 204 194 190 188 189 186 185 188 187
228 228 227 218 212 207 204 205 209 216 205 189 176 161 156 152 137 137 208 227 232 94 121 144 149 154 150 155 183 171 142 117 88 137 163 183 184 177 149 194 227 268 213 229 235 188 98 81 346 197 183 148 122 53 14 76 137 152 140 92 90 89 71 62 253 116 296 266 225 188 181 196 268 239 168 192 222 214 209 183 178 183 183 185 183 181 182 184
226 225 221 216 214 208 205 209 209 199 182 176 168 155 151 146 114 203 206 254 328 115 120 140 149 153 161 161 170 183 173 126 130 144 150 166 179 192 169 165 191 305 309 267 254 171 124 115 15 163 136 113 108 70 22 31 121 141 126 109 115 59 50 40 251 140 230 259 221 184 189 194 229 246 189 194 217 210 195 173 171 176 178 181 181 180 180 181
227 224 221 218 217 213 211 215 210 187 174 170 163 156 151 147 242 222 209 77 22 187 145 148 163 161 173 176 176 180 170 148 158 166 158 156 177 195 196 188 165 164 241 233 220 214 208 200 162 146 175 165 141 93 43 3 319 157 128 124 126 152 9 272 204 180 227 251 269 197 196 209 230 247 244 230 230 246 191 171 170 170 175 180 180 180 180 180
227 221 221 217 214 215 216 220 208 185 179 172 165 158 146 184 208 217 211 177 165 191 132 144 168 173 175 181 177 159 160 165 166 169 160 158 181 203 214 217 189 189 214 189 189 195 238 226 174 154 215 192 178 168 177 244 204 179 157 152 161 171 214 237 212 224 243 245 286 326 165 258 269 256 248 239 215 37 97 164 174 174 177 180 179 179 180 181
231 220 220 217 215 217 216 216 205 191 189 178 165 156 159 201 215 217 219 219 217 70 111 145 158 166 179 187 166 154 166 178 165 165 158 162 186 206 212 220 211 213 154 159 188 179 207 268 188 175 181 182 190 203 187 142 166 193 177 171 184 171 195 226 203 226 257 279 304 310 146 196 218 235 250 250 85 62 80 154 171 175 176 176 175 177 179 181
235 223 219 214 211 214 214 212 205 194 191 184 170 166 182 199 219 216 218 221 213 180 131 145 145 159 191 195 158 168 182 161 165 171 176 182 201 202 197 207 206 199 167 184 205 170 208 260 178 164 152 165 189 213 174 122 153 211 172 188 219 194 195 240 205 172 160 335 293 229 230 223 202 189 141 75 70 65 74 141 157 163 168 170 172 176 180 182
235 226 220 213 209 209 207 206 201 194 191 184 176 197 197 205 214 205 203 199 195 176 141 149 156 169 188 178 168 185 174 114 161 177 202 204 223 217 204 199 194 195 187 183 181 158 194 254 121 119 133 163 188 208 179 152 164 189 170 198 209 147 177 233 277 67 106 275 256 180 245 284 278 271 153 116 87 71 54 149 153 159 165 169 174 178 181 184
235 228 220 214 212 210 203 200 199 195 191 185 190 205 207 218 216 197 180 187 179 159 155 181 186 179 185 177 180 186 165 124 167 178 186 195 231 217 209 202 185 196 205 192 197 199 166 205 273 134 150 177 28 118 171 121 108 138 183 196 133 61 33 189 275 348 173 252 259 177 212 229 199 245 168 131 148 185 220 192 160 162 168 173 179 182 184 185
236 230 222 220 219 211 202 200 199 195 190 187 202 208 216 223 216 206 192 190 175 164 185 216 195 176 193 195 178 177 173 164 175 184 174 180 223 197 193 203 186 195 207 199 207 275 152 185 267 333 69 116 29 85 131 4 76 133 196 213 128 125 230 153 196 249 204 242 277 209 208 205 196 212 174 179 202 196 197 199 179 174 176 180 184 184 185 185
234 226 226 231 225 214 207 202 197 194 190 189 201 207 222 220 215 213 208 206 195 184 201 219 207 196 205 204 181 168 179 179 168 178 191 187 212 187 182 192 192 194 198 194 201 241 157 190 245 314 0 112 95 174 175 198 225 46 339 292 116 150 190 168 194 223 189 236 273 250 214 218 215 195 176 195 207 188 181 194 193 186 186 187 185 185 186 188
229 219 233 236 227 219 213 204 197 193 191 197 196 207 221 213 213 214 215 221 213 196 209 215 209 213 210 208 196 171 185 192 172 182 206 184 187 198 182 182 188 187 186 189 197 164 129 198 218 311 338 125 164 208 192 188 189 180 204 215 196 172 131 140 239 216 188 230 256 261 262 252 241 195 179 193 199 182 179 188 193 191 190 190 189 188 189 191
229 220 243 235 226 217 207 198 196 197 200 197 197 216 219 208 212 211 214 227 236 217 220 223 215 219 216 212 204 169 178 197 183 188 210 191 196 220 184 182 180 161 158 177 198 187 164 191 179 147 240 215 218 217 204 197 192 190 194 193 191 185 158 200 241 207 194 224 215 232 263 254 242 322 181 182 186 184 184 183 187 191 190 191 193 194 194 194
230 224 241 230 218 205 195 189 195 191 194 203 203 212 203 184 208 208 210 224 240 245 237 257 234 226 223 215 203 168 172 194 193 193 209 206 206 205 184 185 176 156 147 161 201 191 140 126 183 193 201 217 239 220 180 191 185 201 221 198 182 183 180 200 224 197 184 230 196 171 275 265 236 341 8 90 125 173 184 183 184 190 192 192 195 197 198 197
234 244 242 232 212 198 189 186 212 191 200 214 208 212 198 176 201 204 204 213 223 233 228 237 236 226 233 223 201 180 177 191 201 198 206 210 209 203 183 181 170 154 154 162 191 171 104 111 196 214 266 346 319 345 49 36 59 332 256 198 183 202 200 202 215 159 167 220 183 178 258 264 267 356 352 16 72 122 172 183 185 187 190 193 195 197 198 198
239 252 240 220 203 194 188 192 200 194 213 205 203 216 215 211 205 201 205 205 206 217 221 227 229 223 234 228 203 193 183 196 217 208 207 205 200 234 181 176 169 162 172 182 171 161 156 172 167 175 255 270 277 276 334 339 199 212 228 203 205 210 197 199 204 78 249 221 174 190 242 248 261 313 321 347 78 93 144 177 184 186 188 191 193 195 197 198
231 244 247 227 202 190 192 206 200 197 209 200 198 208 211 221 215 209 211 208 208 215 220 229 232 233 239 224 242 225 204 218 229 212 216 214 185 339 197 179 174 174 188 191 171 164 171 184 166 180 220 226 226 220 207 196 183 220 215 201 212 207 191 198 191 207 241 213 160 211 240 253 307 265 215 178 127 121 135 162 178 186 190 191 191 193 196 198
213 205 247 248 223 208 207 208 202 199 204 202 202 203 207 218 217 211 212 213 214 216 223 234 227 227 235 228 235 240 228 231 235 182 213 207 172 312 233 194 185 176 174 174 166 159 147 200 190 197 217 224 226 224 181 146 153 203 209 197 206 207 198 200 206 218 226 198 208 228 230 252 270 229 218 210 176 177 175 167 173 179 185 190 191 194 196 199
204 191 184 201 241 240 235 217 206 204 201 199 195 195 203 211 213 204 205 212 212 209 221 241 213 211 217 215 225 235 231 230 219 187 226 204 128 1 315 252 226 167 154 160 164 148 110 212 207 209 225 229 212 172 168 160 176 201 204 199 203 203 198 200 218 221 175 178 246 228 179 229 240 202 214 219 186 190 189 184 185 176 178 186 189 192 195 198
204 207 197 189 194 241 238 230 212 213 208 199 197 206 204 208 212 198 198 210 210 201 207 232 218 218 216 209 216 226 226 227 218 217 227 199 120 72 24 328 274 194 155 152 172 147 152 216 212 205 228 237 219 178 176 172 190 203 199 203 201 196 198 203 219 223 172 203 245 198 159 222 233 191 210 209 188 200 193 189 191 179 175 181 183 187 193 197
208 206 192 190 187 191 215 223 172 234 224 203 199 213 208 209 214 209 195 198 206 202 200 213 222 220 216 214 215 215 215 218 220 220 209 176 158 160 168 269 244 206 151 132 195 191 171 225 208 188 227 244 232 221 200 160 192 233 212 214 206 200 203 204 217 223 208 227 243 212 189 246 242 180 206 202 194 194 173 168 177 174 176 178 180 188 195 201
214 220 180 177 186 181 189 198 183 233 245 216 208 210 206 211 215 213 202 185 192 199 197 214 227 219 211 216 218 221 221 214 221 225 192 165 185 192 191 201 168 164 165 153 188 218 198 220 180 156 226 249 233 227 218 181 203 235 237 234 222 209 207 210 221 222 215 235 244 240 254 264 237 134 168 170 171 162 143 148 161 170 179 180 183 194 201 207
227 225 191 170 181 169 169 184 183 191 241 231 223 209 204 216 216 209 209 206 207 204 194 213 227 221 210 217 217 224 229 221 226 233 193 185 202 202 197 185 141 147 175 171 159 177 190 219 99 129 219 245 225 209 207 173 178 258 254 242 225 206 204 212 220 215 209 226 238 237 244 245 189 114 99 123 141 140 144 154 158 169 182 186 198 207 211 217
242 234 209 191 193 180 172 171 171 187 205 196 209 219 217 225 218 199 213 226 221 220 212 217 226 219 211 217 218 226 232 227 230 238 205 204 213 201 184 172 153 156 166 155 138 156 163 175 156 160 213 249 227 176 174 133 110 255 256 241 213 197 210 220 222 218 213 215 222 229 236 228 166 143 146 151 145 149 161 164 171 195 204 208 217 218 221 227